Weather History for Corning, AR

Change the Weather History Date:

Monday, September 30, 2013

  Actual Average (KARG) Record (KARG)
Temperature  
Mean Temperature 70 °F -  
Max Temperature 77 °F 76 °F 89 °F (1998)
Min Temperature 64 °F 51 °F 39 °F (1999)
Cooling Degree Days 6    
Growing Degree Days 20 (Base 50)    
Moisture  
Dew Point 66 °F    
Average Humidity 91    
Maximum Humidity 100    
Minimum Humidity 69    
Precipitation  
Precipitation 0.00 in - - ()
Sea Level Pressure  
Sea Level Pressure 29.96 in    
Wind  
Wind Speed 5 mph (ESE)    
Max Wind Speed 14 mph    
Max Gust Speed 16 mph    
Visibility 6 miles    
Events Fog    
Averages and records for this station are not official NWS values.
T = Trace of Precipitation, MM = Missing Value Source: NWS Daily Summary

Daily Weather History Graph

Daily Weather History Graph

Search for Another Location

Airport:

Trip Planner

Search our weather history database for the weather conditions in past years. The results will help you decide how hot, cold, wet, or windy it might be!

Date:

Astronomy

Sep. 30, 2013 Rise Set
Actual Time 6:57 AM CDT 6:47 PM CDT
Civil Twilight 6:31 AM CDT 7:12 PM CDT
Nautical Twilight 6:01 AM CDT 7:42 PM CDT
Astronomical Twilight 5:31 AM CDT 8:12 PM CDT
Moon 2:40 AM CDT (9/30) 4:12 PM CDT (9/30)
Length of Visible Light 12h 41m
Length of Day
11h 50m
Waning Crescent, 19% of the Moon is Illuminated
Sep 30
Waning Crescent
Oct 4
New
Oct 11
First Quarter
Oct 18
Full
Oct 26
Last Quarter

Hourly Weather History & Observations

Time (CDT) Temp. Dew Point Humidity Pressure Visibility Wind Dir Wind Speed Gust Speed Precip Events Conditions
12:15 AM 66.2 °F 66.2 °F 100% 29.96 in 2.0 mi ESE 3.5 mph - N/A   Overcast
12:35 AM 66.2 °F 66.2 °F 100% 29.96 in 3.0 mi ESE 5.8 mph - N/A   Overcast
12:55 AM 66.2 °F 66.2 °F 100% 29.96 in 4.0 mi ESE 5.8 mph - N/A   Overcast
1:15 AM 66.2 °F 66.2 °F 100% 29.96 in 4.0 mi Calm Calm - N/A   Overcast
1:35 AM 66.2 °F 66.2 °F 100% 29.96 in 4.0 mi ESE 3.5 mph - N/A   Overcast
1:55 AM 66.2 °F 66.2 °F 100% 29.96 in 2.0 mi ESE 3.5 mph - N/A   Overcast
2:15 AM 66.2 °F 66.2 °F 100% 29.96 in 0.5 mi Calm Calm - N/A Fog Fog
2:35 AM 66.2 °F 66.2 °F 100% 29.95 in 0.5 mi NE 3.5 mph - N/A Fog Fog
2:55 AM 66.2 °F 66.2 °F 100% 29.95 in 1.2 mi Calm Calm - N/A   Overcast
3:15 AM 66.2 °F 66.2 °F 100% 29.95 in 1.5 mi NE 4.6 mph - N/A   Overcast
3:35 AM 66.2 °F 66.2 °F 100% 29.95 in 1.5 mi ENE 3.5 mph - N/A   Overcast
3:55 AM 66.2 °F 66.2 °F 100% 29.95 in 0.5 mi Calm Calm - N/A Fog Fog
4:15 AM 66.2 °F 66.2 °F 100% 29.96 in 0.5 mi NE 3.5 mph - N/A Fog Fog
4:35 AM 66.2 °F 66.2 °F 100% 29.96 in 0.8 mi ENE 3.5 mph - N/A   Overcast
4:55 AM 66.2 °F 66.2 °F 100% 29.96 in 1.5 mi ENE 5.8 mph - N/A   Overcast
5:15 AM 66.2 °F 66.2 °F 100% 29.96 in 2.0 mi East 4.6 mph - N/A   Overcast
5:35 AM 66.2 °F 66.2 °F 100% 29.96 in 3.0 mi East 5.8 mph - N/A   Overcast
5:55 AM 66.2 °F 66.2 °F 100% 29.96 in 3.0 mi East 6.9 mph - N/A   Overcast
6:15 AM 66.2 °F 66.2 °F 100% 29.96 in 5.0 mi ENE 4.6 mph - N/A   Overcast
6:35 AM 66.2 °F 66.2 °F 100% 29.96 in 5.0 mi ENE 3.5 mph - N/A   Overcast
6:55 AM 66.2 °F 66.2 °F 100% 29.97 in 5.0 mi ENE 3.5 mph - N/A   Overcast
7:15 AM 66.2 °F 66.2 °F 100% 29.97 in 5.0 mi Calm Calm - N/A   Mostly Cloudy
7:35 AM 66.2 °F 66.2 °F 100% 29.98 in 5.0 mi Calm Calm - N/A   Partly Cloudy
7:55 AM 66.2 °F 66.2 °F 100% 29.98 in 5.0 mi Calm Calm - N/A   Clear
8:15 AM 66.2 °F 66.2 °F 100% 29.98 in 7.0 mi Calm Calm - N/A   Clear
8:35 AM 68.0 °F 68.0 °F 100% 29.99 in 8.0 mi Calm Calm - N/A   Mostly Cloudy
8:55 AM 68.0 °F 68.0 °F 100% 29.99 in 8.0 mi SSE 4.6 mph - N/A   Mostly Cloudy
9:15 AM 68.0 °F 66.2 °F 94% 29.99 in 9.0 mi SE 3.5 mph - N/A   Mostly Cloudy
9:35 AM 69.8 °F 66.2 °F 88% 29.99 in 10.0 mi ESE 6.9 mph - N/A   Overcast
9:55 AM 71.6 °F 66.2 °F 83% 29.98 in 10.0 mi ESE 9.2 mph - N/A   Unknown
10:15 AM 71.6 °F 66.2 °F 83% 29.99 in 10.0 mi ESE 9.2 mph - N/A   Unknown
10:35 AM 71.6 °F 66.2 °F 83% 29.99 in 10.0 mi ESE 9.2 mph - N/A   Unknown
10:55 AM 71.6 °F 66.2 °F 83% 29.99 in 10.0 mi ESE 8.1 mph - N/A   Unknown
11:15 AM 73.4 °F 66.2 °F 78% 29.99 in 10.0 mi ESE 9.2 mph - N/A   Unknown
11:35 AM 75.2 °F 66.2 °F 73% 29.98 in 10.0 mi East 5.8 mph - N/A   Unknown
11:55 AM 77.0 °F 66.2 °F 69% 29.97 in 10.0 mi SE 10.4 mph - N/A   Unknown
12:15 PM 75.2 °F 64.4 °F 69% 29.97 in 10.0 mi East 5.8 mph - N/A   Unknown
12:35 PM 75.2 °F 64.4 °F 69% 29.96 in 10.0 mi SE 10.4 mph - N/A   Unknown
12:55 PM 75.2 °F 64.4 °F 69% 29.96 in 10.0 mi East 6.9 mph - N/A   Unknown
1:15 PM 75.2 °F 64.4 °F 69% 29.95 in 10.0 mi ESE 4.6 mph - N/A   Unknown
1:35 PM 75.2 °F 64.4 °F 69% 29.95 in 10.0 mi SE 9.2 mph - N/A   Unknown
1:55 PM 75.2 °F 66.2 °F 73% 29.94 in 10.0 mi ESE 8.1 mph - N/A   Unknown
2:15 PM 75.2 °F 66.2 °F 73% 29.94 in 10.0 mi ESE 11.5 mph - N/A   Unknown
2:35 PM 75.2 °F 66.2 °F 73% 29.94 in 10.0 mi SE 11.5 mph 16.1 mph N/A   Partly Cloudy
2:55 PM 75.2 °F 66.2 °F 73% 29.93 in 10.0 mi ESE 11.5 mph - N/A   Clear
3:15 PM 75.2 °F 66.2 °F 73% 29.93 in 10.0 mi ESE 10.4 mph - N/A   Clear
3:35 PM 75.2 °F 66.2 °F 73% 29.92 in 10.0 mi ESE 11.5 mph - N/A   Scattered Clouds
3:55 PM 75.2 °F 66.2 °F 73% 29.92 in 10.0 mi SE 10.4 mph - N/A   Scattered Clouds
4:15 PM 75.2 °F 66.2 °F 73% 29.92 in 10.0 mi ESE 13.8 mph - N/A   Unknown
4:35 PM 73.4 °F 66.2 °F 78% 29.93 in 10.0 mi ESE 9.2 mph - N/A   Mostly Cloudy
4:55 PM 73.4 °F 66.2 °F 78% 29.93 in 10.0 mi ESE 9.2 mph - N/A   Partly Cloudy
5:15 PM 73.4 °F 66.2 °F 78% 29.93 in 10.0 mi East 9.2 mph - N/A   Clear
5:35 PM 73.4 °F 66.2 °F 78% 29.93 in 10.0 mi ESE 10.4 mph - N/A   Partly Cloudy
5:55 PM 71.6 °F 66.2 °F 83% 29.93 in 10.0 mi ESE 8.1 mph - N/A   Clear
6:15 PM 69.8 °F 66.2 °F 88% 29.93 in 10.0 mi East 8.1 mph - N/A   Clear
6:35 PM 68.0 °F 66.2 °F 94% 29.94 in 10.0 mi ESE 8.1 mph - N/A   Partly Cloudy
6:55 PM 68.0 °F 66.2 °F 94% 29.94 in 10.0 mi ESE 9.2 mph - N/A   Mostly Cloudy
7:15 PM 68.0 °F 68.0 °F 100% 29.95 in 10.0 mi ESE 8.1 mph - N/A   Scattered Clouds
7:35 PM 66.2 °F 66.2 °F 100% 29.95 in 8.0 mi East 6.9 mph - N/A   Clear
7:55 PM 66.2 °F 66.2 °F 100% 29.95 in 6.0 mi ESE 6.9 mph - N/A   Clear
8:15 PM 66.2 °F 66.2 °F 100% 29.95 in 5.0 mi ESE 5.8 mph - N/A   Clear
8:35 PM 64.4 °F 64.4 °F 100% 29.96 in 5.0 mi ESE 6.9 mph - N/A   Clear
8:55 PM 64.4 °F 64.4 °F 100% 29.96 in 5.0 mi ESE 5.8 mph - N/A   Clear
9:15 PM 66.2 °F 66.2 °F 100% 29.97 in 4.0 mi ESE 6.9 mph - N/A   Partly Cloudy
9:35 PM 66.2 °F 66.2 °F 100% 29.97 in 5.0 mi ESE 5.8 mph - N/A   Mostly Cloudy
9:55 PM 68.0 °F 68.0 °F 100% 29.97 in 4.0 mi ESE 5.8 mph - N/A   Overcast
10:15 PM 66.2 °F 66.2 °F 100% 29.97 in 4.0 mi ESE 8.1 mph - N/A   Overcast
10:35 PM 68.0 °F 68.0 °F 100% 29.97 in 4.0 mi ESE 6.9 mph - N/A   Mostly Cloudy
10:55 PM 68.0 °F 68.0 °F 100% 29.97 in 4.0 mi East 6.9 mph - N/A   Mostly Cloudy
11:15 PM 68.0 °F 68.0 °F 100% 29.97 in 4.0 mi ESE 8.1 mph - N/A   Overcast
11:35 PM 68.0 °F 68.0 °F 100% 29.97 in 4.0 mi ESE 5.8 mph - N/A   Mostly Cloudy
11:55 PM 68.0 °F 68.0 °F 100% 29.96 in 5.0 mi SE 6.9 mph - N/A   Overcast